Home > Weather > Neuquén > Past weeks

Flag for Argentina Weather for the Past 2 Weeks in Neuquén, Neuquén, Argentina

Now
52 °F

Scattered showers. Passing clouds.


Feels Like: 46 °F
Forecast: 52 / 69 °F
Wind: 17 mph from Northwest

Location: Bariloche Aerodrome

Current Time: Feb 13, 2016 at 9:58:15 PM

Latest Report: Feb 13, 2016 at 9:00 PM


Visibility: 6 mi

Pressure: 30.01 "Hg

Humidity: 72%

Dew point: 43 °F

Location of NeuquénLocation

Historic Weather in Neuquén — Graph

°F

Neuquén Temperature Yesterday

Maximum temperature yesterday: 68 °F (at 11:00 AM)
Minimum temperature yesterday: 48 °F (at 7:00 AM)
Average temperature yesterday: 59 °F

High & Low Weather Summary for the Past Weeks

 TemperatureHumidityPressure
High91 °F (Feb 1, 6:00 PM)94% (Feb 5, 7:00 PM)30.27 "Hg (Feb 5, 7:00 PM)
Low34 °F (Feb 4, 6:00 AM)12% (Feb 10, 6:00 PM)29.68 "Hg (Feb 12, 3:00 PM)
Average64 °F51%30.00 "Hg
* Reported Jan 29 8:00 PM — Feb 13 8:00 PM, Neuquén, Weather by CustomWeather, © 2016

Note: Actual official high and low records may vary slightly from our data, if they occured in-between our weather recording intervals... More about our weather records

Advertising

Neuquén Weather History for the Previous 24 Hours

 ConditionsComfort  
Time TempWeatherWind HumidityBarometerVisibility
8:00 PM
Sat, Feb 13
52 °FPassing clouds.21 mph62%30.01 "HgN/A
7:00 PM52 °FScattered clouds.25 mph62%29.98 "HgN/A
6:00 PM54 °FScattered clouds.26 mph58%29.98 "HgN/A
5:00 PM55 °FPartly sunny.25 mph55%29.98 "HgN/A
4:00 PM55 °FPartly sunny.25 mph51%29.98 "HgN/A
3:00 PM57 °FBroken clouds.25 mph48%29.98 "HgN/A
2:00 PM59 °FPartly sunny.26 mph39%29.98 "HgN/A
1:00 PM57 °FPartly sunny.25 mph44%29.98 "HgN/A
12:00 PM57 °FPartly sunny.23 mph44%29.98 "HgN/A
11:00 AM54 °FPartly sunny.24 mph54%29.98 "HgN/A
10:00 AM54 °FScattered clouds.23 mph47%29.98 "HgN/A
9:00 AM50 °FScattered clouds.18 mph54%29.98 "HgN/A
8:00 AM50 °FScattered clouds.23 mph58%29.95 "HgN/A
7:00 AM48 °FScattered clouds.25 mph58%29.92 "HgN/A
6:00 AM48 °FPassing clouds.29 mph76%29.89 "HgN/A
5:00 AM48 °FPassing clouds.30 mph87%29.86 "HgN/A
4:00 AM50 °FPassing clouds.22 mph82%29.86 "HgN/A
3:00 AM52 °FPassing clouds.20 mph77%29.83 "HgN/A
2:00 AM52 °FPassing clouds.18 mph82%29.80 "HgN/A
1:00 AM54 °FPassing clouds.22 mph72%29.80 "HgN/A
12:00 AM54 °FPassing clouds.22 mph77%29.77 "HgN/A
10:00 PM
Fri, Feb 12
54 °FLight rain. Passing clouds.25 mph77%29.74 "Hg6 mi
9:00 PM54 °FLight rain. Passing clouds.26 mph77%29.74 "Hg5 mi
Weather by CustomWeather, © 2016

See weather overviewHow to use our weather pages